Погода в Воскресенском

Россия / Нижегородская область     56°50′09″N   45°26′09″E
темп.,
°C
ветер,
м/с
пор.,
м/с
влажн.,
%
обл.,
%
осадки,
мм/ч
давл.,
гПа
погр.,
м
24 мая, вт
вт2400:000юз259981 0.0 1001179
03:00+1юз3898100 0.5 1000482
06:000сз349381 0.3 1001423
09:00+4сз346798 0.4 10021282
12:00+6сз3352100 0.2 10031828
15:00+7сз3348100 0.3 10051540
18:00+7сз334780 0.1 10061513
21:00+1сз238599 0.1 100839
25 мая, ср
ср2500:000сз229541 0.0 100836
03:00−1сз239634 0.0 100966
06:00+2сз358320 0.0 1009301
09:00+5сз3571100 0.0 1010768
12:00+7зсз3569100 0.6 10101162
15:00+5зсз4696100 2.1 1011825
18:00+4зсз379487 0.3 1011730
21:00+4з2793100 0.3 1012305
26 мая, чт
чт2600:00+3з269899 0.0 1012204
03:00+2зюз289890 0.1 1011200
06:00+5юз399285 0.1 1011351
09:00+9зюз466987 0.4 10101119
12:00+12зюз575188 0.9 10091793
15:00+13зюз4654100 1.1 10091680
18:00+11юз4667100 0.1 1009653
21:00+6ю369322 0.1 1008110
27 мая, пт
пт2700:00+7ююв31185100 0.0 1006314
03:00+7юв3987100 0.0 1004261
06:00+8вюв3897100 0.6 1001256
09:00+9вюв41292100 0.5 1002799
12:00+10юв51297100 2.9 999911
15:00+10юв3899100 5.1 998539
18:00+10юз2699100 1.0 998317
21:00+8зюз389836 1.3 1000337
28 мая, сб
сб2800:00+6юз259821 0.0 100198
03:00+7юз399975 0.0 1002251
06:00+9ююз389697 0.0 1002285
09:00+10ю3894100 0.7 1001564
12:00+10ю51497100 4.9 999915
15:00+12ююз51194100 6.4 1000967
18:00+12юз6118897 1.5 1001951
21:00+9юз311960 2.5 1004345